カタログに戻る

STARLINK-5302

運用中通信VLEO
NORAD 56556·PAYLOAD·🇺🇸 United States

打ち上げ May 14, 2023 から Cape Canaveral Space Force Station

Loading…

次のパス (今後24時間)

TLE

最新Source: CelesTrak SupGP

元期: Sep 14, 2026, 22:07 UTC

1 56556C 23065BF  26257.92201389  .00026184  00000+0  94864-3 0  2570
2 56556  43.0025 234.7676 0000710 283.9030  99.3961 15.27557747    19

AllMySatでSTARLINK-5302をリアルタイム追跡

Download on the App Store